Location: 22
(39.7117°N, 89.5929°W)
Time: 02:13:32
(UTC-05:00)

Hubble Space Telescope - Visible Passes

Search period start: 03 October 2023 00:00
Search period end: 13 October 2023 00:00
Orbit: 521 x 525 km, 28.5° (Epoch: 02 October)

Date Brightness Start Highest point End Pass type
(mag) Time Alt. Az. Time Alt. Az. Time Alt. Az.
07 Oct 3.4 20:39:44 10° SSW 20:40:06 11° SSW 20:40:06 11° SSW visible
08 Oct 3.0 20:23:54 10° SSW 20:25:23 15° SSW 20:25:23 15° SSW visible
09 Oct 2.7 20:08:07 10° SW 20:10:38 16° S 20:10:38 16° S visible
10 Oct 2.7 19:52:21 10° SW 19:54:56 16° S 19:55:52 15° SSE visible
11 Oct 2.8 19:36:35 10° SW 19:39:12 17° S 19:41:04 13° SSE visible
12 Oct 2.9 19:20:52 10° SW 19:23:26 16° S 19:26:01 10° SE visible
